CZ-6A R/B, 66051

Orbit data source: Space-Track

CZ-6A R/B, 66051 is space debris in LEO originally from a launch on Fri, 17 Oct 2025 UTC launched from the Taiyaun Space Center, China (TSC). Debris objects in space refer to the collection of defunct objects orbiting the Earth. Examples of debris include non-operational satellites, rocket bodies, and fragments generated from explosions, collisions, or faulty payload assembly.

Loading next visibility...
Identifier
66051, 2025-233U
Orbit
LEO
Country
Flag of CNCN / PRC
Related business
Manufacturer
SAST
Mission
Spacecraft
Bus & Motor
CZ-6A STAGE 2, YF-115
Mass
~6,000 kg wet, ~6,000 kg dry
Launch date (UTC)
2025-10-17 (7 months ago)
Launch vehicle
Unknown
Launch site
Taiyaun Space Center, China (TSC)
Object type
Payload
Rocket body
Debris
Shape & HBR
Unknown shape, 8.0 m
Radar Cross Section
RCS unknown

Expand to show TLE details & history
Last TLE update: 7 hours ago

TLE from 7 hours ago
0 CZ-6A R/B
1 66051U 25233U   26130.20170676  .00000227  00000-0  43854-4 0  9993
2 66051  89.0362  44.5269 0085307 131.7691 229.0852 14.57174825 29833
Epoch: 2026-05-10T04:50Z
TLE epoch observation values (Epoch: 2026-05-10T04:50:27.464Z)
Latitude
-0.00002°
Longitude
103.90429°
Altitude
745.277 km
Speed
7.461 km/s
True Right ascension
02h 58m 06s
True Declination
0° 00' 00"
Sunlit
Object was in daylight at epoch
Visualization orbit readout
Latitude
Unknown
Longitude
Unknown
Altitude
Unknown
Speed
Unknown
Apparent Right ascension
Unknown
Apparent Declination
Unknown
Sunlit
N/A
Visualization observer readout
Local Sidereal Time
19:46:12
Azimuth
Unknown
Elevation
Unknown
Doppler factor
Unknown
Orbital elements
Apogee altitude
759.583 km
Perigee altitude
638.834 km
Semi-major axis
7,077.346 km
Eccentricity
0.00853
Inclination
89.0362°
RAAN
44.5269°
Arg. of periapsis
131.7691°
True anomaly
228.35163°
Mean anomaly
229.0852°
Eccentric anomaly
228.7179°
Mean motion
3.64534 °/min
Orbital period
98.76 mins
BSTAR
0.000043854
Loading maneuver chart data...
Computing Atmospheric mass density...
Loading historical data...
Loading historical data...
Loading historical data...
Loading historical data...
Loading historical data...
Loading historical data...
Loading historical data...

Documentation

Showing up to 5 results
|